Hourly Weather Homestead

Today, 16 April, Friday

Time Temperature Precipitation Wind Pressure Humidity
00:00 +24°C° 0 mm 3 mps 759 mmHg 77%
01:00 +22°C° 0 mm 3 mps 759 mmHg 78%
02:00 +23°C° 0 mm 2 mps 759 mmHg 79%
03:00 +23°C° 0 mm 2 mps 759 mmHg 79%
04:00 +23°C° 0 mm 2 mps 758 mmHg 80%
05:00 +23°C° 0 mm 2 mps 759 mmHg 78%
06:00 +24°C° 0 mm 1 mps 759 mmHg 76%
07:00 +24°C° 0 mm 1 mps 759 mmHg 74%
08:00 +26°C° 0 mm 1 mps 759 mmHg 65%
09:00 +28°C° 0 mm 1 mps 759 mmHg 57%
10:00 +30°C° 0 mm 2 mps 759 mmHg 48%
11:00 +31°C° 0 mm 2 mps 759 mmHg 44%
12:00 +33°C° 0 mm 3 mps 758 mmHg 41%
13:00 +34°C° 0 mm 4 mps 758 mmHg 37%
14:00 +34°C° 0 mm 5 mps 758 mmHg 39%
15:00 +33°C° 0 mm 5 mps 757 mmHg 41%
16:00 +33°C° 0 mm 6 mps 757 mmHg 42%
17:00 +32°C° 0 mm 6 mps 757 mmHg 49%
18:00 +29°C° 0 mm 5 mps 758 mmHg 55%
19:00 +28°C° 0 mm 4 mps 758 mmHg 61%
20:00 +27°C° 0 mm 4 mps 759 mmHg 66%
21:00 +26°C° 0 mm 3 mps 759 mmHg 70%
22:00 +25°C° 0 mm 2 mps 760 mmHg 75%
23:00 +25°C° 0 mm 2 mps 759 mmHg 75%

Tomorrow, 17 April, Saturday

Time Temperature Precipitation Wind Pressure Humidity
00:00 +25°C° 0 mm 2 mps 759 mmHg 76%
01:00 +25°C° 0 mm 2 mps 759 mmHg 77%
02:00 +25°C° 0 mm 2 mps 759 mmHg 78%
03:00 +25°C° 0 mm 2 mps 758 mmHg 79%
04:00 +25°C° 0 mm 3 mps 758 mmHg 79%
05:00 +25°C° 0 mm 3 mps 759 mmHg 78%
06:00 +26°C° 0 mm 2 mps 759 mmHg 77%
07:00 +26°C° 0 mm 2 mps 759 mmHg 76%
08:00 +28°C° 0 mm 3 mps 759 mmHg 66%
09:00 +30°C° 0 mm 4 mps 760 mmHg 56%
10:00 +33°C° 0 mm 4 mps 760 mmHg 47%
11:00 +34°C° 0 mm 5 mps 759 mmHg 42%
12:00 +34°C° 0 mm 6 mps 759 mmHg 38%
13:00 +35°C° 0 mm 6 mps 759 mmHg 33%
14:00 +35°C° 0 mm 6 mps 759 mmHg 33%
15:00 +35°C° 0 mm 6 mps 758 mmHg 34%
16:00 +34°C° 0 mm 6 mps 758 mmHg 34%
17:00 +33°C° 0 mm 5 mps 758 mmHg 39%
18:00 +30°C° 0 mm 4 mps 759 mmHg 44%
19:00 +29°C° 0 mm 3 mps 759 mmHg 49%
20:00 +28°C° 0 mm 3 mps 759 mmHg 55%
21:00 +27°C° 0 mm 2 mps 759 mmHg 61%
22:00 +26°C° 0 mm 2 mps 760 mmHg 67%
23:00 +25°C° 0 mm 2 mps 760 mmHg 69%

Day after tomorrow, 18 April, Sunday

Time Temperature Precipitation Wind Pressure Humidity
00:00 +25°C° 0 mm 2 mps 759 mmHg 71%
01:00 +25°C° 0 mm 2 mps 759 mmHg 73%
02:00 +25°C° 0 mm 2 mps 759 mmHg 75%
03:00 +25°C° 0 mm 2 mps 759 mmHg 77%
04:00 +24°C° 0 mm 2 mps 759 mmHg 79%
05:00 +25°C° 0 mm 1 mps 760 mmHg 78%
06:00 +25°C° 0 mm 1 mps 760 mmHg 77%
07:00 +26°C° 0 mm 1 mps 761 mmHg 76%
08:00 +28°C° 0 mm 2 mps 761 mmHg 68%
09:00 +30°C° 0 mm 3 mps 761 mmHg 60%
10:00 +31°C° 0 mm 3 mps 761 mmHg 52%
11:00 +33°C° 0 mm 4 mps 760 mmHg 48%
12:00 +34°C° 0 mm 5 mps 760 mmHg 44%
13:00 +35°C° 0 mm 6 mps 759 mmHg 41%
14:00 +35°C° 0 mm 6 mps 759 mmHg 41%
15:00 +35°C° 0 mm 6 mps 759 mmHg 41%
16:00 +34°C° 0 mm 6 mps 758 mmHg 42%
17:00 +33°C° 0 mm 5 mps 759 mmHg 47%
18:00 +32°C° 0 mm 4 mps 759 mmHg 52%
19:00 +29°C° 0 mm 3 mps 759 mmHg 58%
20:00 +29°C° 0.2 mm 3 mps 759 mmHg 62%
21:00 +28°C° 0.2 mm 2 mps 760 mmHg 67%
22:00 +27°C° 0.2 mm 2 mps 760 mmHg 71%
23:00 +27°C° 0.4 mm 2 mps 760 mmHg 74%

19 April, Monday

Time Temperature Precipitation Wind Pressure Humidity
00:00 +27°C° 0.4 mm 2 mps 760 mmHg 76%
01:00 +27°C° 0.4 mm 3 mps 760 mmHg 79%
02:00 +27°C° 0.1 mm 3 mps 759 mmHg 80%
03:00 +26°C° 0.1 mm 3 mps 759 mmHg 81%
04:00 +26°C° 0.1 mm 2 mps 759 mmHg 82%
05:00 +27°C° 0.1 mm 3 mps 759 mmHg 81%
06:00 +27°C° 0.1 mm 3 mps 760 mmHg 81%
07:00 +28°C° 0.1 mm 4 mps 760 mmHg 81%
08:00 +29°C° 0 mm 5 mps 760 mmHg 73%
09:00 +30°C° 0 mm 5 mps 760 mmHg 65%
10:00 +33°C° 0 mm 6 mps 760 mmHg 57%
11:00 +34°C° 0 mm 6 mps 760 mmHg 53%
12:00 +34°C° 0 mm 7 mps 760 mmHg 50%
13:00 +35°C° 0 mm 8 mps 759 mmHg 46%
14:00 +35°C° 0 mm 7 mps 759 mmHg 47%
15:00 +34°C° 0 mm 7 mps 759 mmHg 48%
16:00 +34°C° 0 mm 6 mps 759 mmHg 49%
17:00 +33°C° 0 mm 5 mps 759 mmHg 54%
18:00 +32°C° 0 mm 5 mps 759 mmHg 58%
19:00 +30°C° 0 mm 4 mps 760 mmHg 62%
20:00 +29°C° 0 mm 3 mps 760 mmHg 65%
21:00 +29°C° 0 mm 2 mps 760 mmHg 69%
22:00 +28°C° 0 mm 1 mps 761 mmHg 72%
23:00 +28°C° 0 mm 1 mps 761 mmHg 73%

20 April, Tuesday

Time Temperature Precipitation Wind Pressure Humidity
00:00 +27°C° 0 mm 1 mps 761 mmHg 74%
01:00 +25°C° 0 mm 0 mps 761 mmHg 75%
02:00 +27°C° 0 mm 1 mps 760 mmHg 75%
03:00 +27°C° 0 mm 1 mps 760 mmHg 75%
04:00 +27°C° 0 mm 2 mps 760 mmHg 76%
05:00 +27°C° 0.1 mm 2 mps 760 mmHg 76%
06:00 +28°C° 0.1 mm 2 mps 761 mmHg 76%
07:00 +28°C° 0.1 mm 3 mps 761 mmHg 76%
08:00 +29°C° 0 mm 3 mps 761 mmHg 69%
09:00 +32°C° 0 mm 4 mps 761 mmHg 63%
10:00 +33°C° 0 mm 5 mps 761 mmHg 56%
11:00 +33°C° 0 mm 5 mps 761 mmHg 52%
12:00 +34°C° 0 mm 6 mps 761 mmHg 47%
13:00 +35°C° 0 mm 7 mps 760 mmHg 42%
14:00 +34°C° 0 mm 7 mps 760 mmHg 44%
15:00 +34°C° 0 mm 6 mps 760 mmHg 46%
16:00 +33°C° 0 mm 6 mps 759 mmHg 47%
17:00 +32°C° 0 mm 5 mps 760 mmHg 53%
18:00 +30°C° 0 mm 4 mps 760 mmHg 58%
19:00 +30°C° 0 mm 4 mps 760 mmHg 63%
20:00 +29°C° 0 mm 3 mps 761 mmHg 67%
21:00 +28°C° 0 mm 3 mps 761 mmHg 70%
22:00 +28°C° 0 mm 3 mps 761 mmHg 74%
23:00 +28°C° 0.1 mm 3 mps 761 mmHg 74%

21 April, Wednesday

Time Temperature Precipitation Wind Pressure Humidity
00:00 +28°C° 0.1 mm 3 mps 761 mmHg 75%
01:00 +28°C° 0.1 mm 2 mps 761 mmHg 75%
02:00 +27°C° 0 mm 2 mps 761 mmHg 76%
03:00 +27°C° 0 mm 2 mps 760 mmHg 77%
04:00 +27°C° 0 mm 2 mps 760 mmHg 78%
05:00 +27°C° 0 mm 2 mps 761 mmHg 78%
06:00 +27°C° 0 mm 2 mps 761 mmHg 78%
07:00 +28°C° 0 mm 2 mps 761 mmHg 78%
08:00 +29°C° 0 mm 2 mps 762 mmHg 72%
09:00 +30°C° 0 mm 2 mps 762 mmHg 65%
10:00 +31°C° 0 mm 3 mps 762 mmHg 59%
11:00 +33°C° 0 mm 4 mps 761 mmHg 52%
12:00 +35°C° 0 mm 5 mps 761 mmHg 46%
13:00 +36°C° 0 mm 6 mps 761 mmHg 39%
14:00 +36°C° 0 mm 6 mps 760 mmHg 39%
15:00 +35°C° 0 mm 6 mps 760 mmHg 39%
16:00 +35°C° 0 mm 6 mps 760 mmHg 40%
17:00 +33°C° 0 mm 6 mps 760 mmHg 45%
18:00 +32°C° 0 mm 5 mps 760 mmHg 51%
19:00 +29°C° 0 mm 4 mps 761 mmHg 57%
20:00 +29°C° 0.1 mm 4 mps 761 mmHg 61%
21:00 +28°C° 0.1 mm 4 mps 762 mmHg 65%
22:00 +28°C° 0.1 mm 4 mps 762 mmHg 69%
23:00 +27°C° 0.3 mm 4 mps 762 mmHg 72%
Show more